Regional Weather Roundup
Issued by NWS

Home | Current Version | Previous Version | Text Only | Print | Product List | Glossary On
Versions: 1 2 3 4 5 6 7 8 9 10 11 12 13 14 15 16 17 18 19 20 21 22 23 24 25 26 27 28 29 30 31 32 33 34 35 36 37 38 39 40 41 42 43 44 45 46 47 48 49 50
000
ASUS43 KMKX 241400
RWRWI

WISCONSIN REGIONAL WEATHER ROUNDUP
NATIONAL WEATHER SERVICE MILWAUKEE/SULLIVAN WI
900 AM CDT WED MAY 24 2017

NOTE: "FAIR" INDICATES FEW OR NO CLOUDS BELOW 12,000 FEET WITH NO
SIGNIFICANT WEATHER AND/OR OBSTRUCTIONS TO VISIBILITY.

WIZ001-002-006>008-014>016-023>028-241500-
NORTHWEST WISCONSIN

CITY           SKY/WX    TMP DP  RH WIND       PRES   REMARKS
SUPERIOR ARPT  NOT AVBL
ASHLAND        CLOUDY    46  42  86 N8        29.83S
HAYWARD        CLOUDY    50  43  77 N10       29.80S
SIREN          CLOUDY    49  44  85 NE9       29.80S
CUMBERLAND     CLOUDY    46  43  87 N9        29.78S
RICE LAKE      CLOUDY    49  44  83 N10       29.79S
CHETEK         CLOUDY    49  44  81 N9        29.77S
LADYSMITH      MOSUNNY   51  45  78 NE10      29.78S
EAU CLAIRE     NOT AVBL
MENOMONIE      SUNNY     52  45  77 N8        29.76S
NEW RICHMOND   CLOUDY    49  43  78 NE5       29.78S
OSCEOLA        CLOUDY    51  45  79 N8        29.81S
$$

WIZ003>005-009-010-017-018-241500-
NORTH CENTRAL WISCONSIN

CITY           SKY/WX    TMP DP  RH WIND       PRES   REMARKS
MANITOWISH WTR CLOUDY    48  46  91 NE9       29.78R
ARBOR VITAE    CLOUDY    52  45  77 NE8G16    29.76R
WOODRUFF       CLOUDY    52  45  77 NE8G16    29.76R
RHINELANDER    CLOUDY    48  45  89 NE8       29.76R
EAGLE RIVER    CLOUDY    47  45  93 NE9       29.76R
LAND O LAKES   CLOUDY    47  43  85 NE10      29.79R
PHILLIPS       PTSUNNY   51  46  82 N10       29.75S
TOMAHAWK       CLOUDY    47  44  89 N5        29.76R
MEDFORD        CLOUDY    47  44  88 NE8       29.74S
MERRILL        CLOUDY    48  47  97 NE6       29.74S
$$

WIZ029-030-035-036-043>047-241500-
CENTRAL WISCONSIN

CITY           SKY/WX    TMP DP  RH WIND       PRES   REMARKS
WAUSAU         LGT RAIN  48  47  96 N7        29.71S
MOSINEE        CLOUDY    48  48 100 N9        29.73S FOG
MARSHFIELD     CLOUDY    49  46  90 NE10      29.71S
STEVENS POINT  DRIZZLE   47  47 100 N6        29.71F
WAUPACA        CLOUDY    51  49  95 NE5       29.71R FOG
WAUTOMA        CLOUDY    49  48  97 NE8       29.70S
WISC RAPIDS    CLOUDY    50  48  93 NE7       29.71F
CAMP DOUGLAS   NOT AVBL
$$

WIZ011>013-019>022-031-037>040-048>050-241500-
NORTHEAST WISCONSIN

CITY           SKY/WX    TMP DP  RH WIND       PRES   REMARKS
ANTIGO         CLOUDY    47  46  98 NE12      29.73S
SHAWANO        CLOUDY    50  48  93 NE8       29.72R FOG
OCONTO         CLOUDY    47  46  97 NE6       29.72R
STURGEON BAY   CLOUDY    49  47  93 NE9       29.72R
GREEN BAY      LGT RAIN  50  50 100 N13       29.70S FOG
MANITOWOC      NOT AVBL
APPLETON       CLOUDY    48  48 100 NE12G17   29.68R FOG
CLINTONVILLE   CLOUDY    46  46 100 NE8       29.71S FOG
OSHKOSH        CLOUDY    51  48  89 NE12      29.68S
$$

WIZ032>034-041-042-053>061-241500-
SOUTHWEST WISCONSIN

CITY           SKY/WX    TMP DP  RH WIND       PRES   REMARKS
LA CROSSE      CLOUDY    54  49  83 N8        29.71S
SPARTA         CLOUDY    49  48  97 N3        29.72R
VIROQUA        CLOUDY    49  48  96 MISG      29.69R
BOSCOBEL       CLOUDY    54  49  83 N9        29.68S
PRAIRIE DU CHI CLOUDY    53  47  81 N3        29.68S
PLATTEVILLE    CLOUDY    51  51  99 N12       29.66S
$$

WIZ056-057-062-063-064-067-068-241500-
SOUTH CENTRAL WISCONSIN

CITY           SKY/WX    TMP DP  RH WIND       PRES   REMARKS
REEDSBURG      CLOUDY    48  48 100 NE8       29.68S
BARABOO/DELLS  CLOUDY    48  47  96 NE6       29.68S FOG
LONE ROCK      CLOUDY    52  49  89 NE10      29.68R FOG
MINERAL POINT  CLOUDY    52  52 100 NE10      29.66S
MADISON        CLOUDY    51  50  96 N9        29.65S FOG
MIDDLETON      CLOUDY    52  52 100 N10       29.66S
WATERTOWN      CLOUDY    51  51 100 N6        29.65S
MONROE         CLOUDY    50  48  93 N12       29.64S FOG
JANESVILLE     CLOUDY    52  52 100 N7        29.63S FOG
$$

WIZ051-052-058>065-066-070>072-241500-
SOUTHEAST WISCONSIN

CITY           SKY/WX    TMP DP  RH WIND       PRES   REMARKS
MILWAUKEE      LGT RAIN  49  48  97 N16       29.64F VSB 3/4
WAUKESHA       LGT RAIN  48  48 100 NE7       29.66R FOG
MILWAUKEE/TIMM RAIN      50  48  93 NE6       29.66S FOG
RACINE         LGT RAIN  49  47  93 N14G23    29.63F
KENOSHA        CLOUDY    52  50  93 NE7       29.62S
FOND DU LAC    CLOUDY    51  47  86 N9        29.68S
SHEBOYGAN      LGT RAIN  49  49 100 NE9       29.67S
WEST BEND      LGT RAIN  48  48 100 N5        29.66S
JUNEAU         CLOUDY    49  49  97 N6        29.67S
$$

LSZ147-162-241500-
LAKE SUPERIOR

STATION/POSITION TIME  TEMP    WIND        PRES    WAVE
                       AIR SEA DIR/SP/G            HT/PER
                 (UTC) (F)     (DEG/KT/KT) (MB)    (FT/S)
W MID LAKE BUOY  1250   41 37   10/  8/ 10 1010.7R   1
DEVILS ISLAND    1300   42      50/  8/  9 1011.0R
SAXON HARBOR     1340   43     360/  1/  2 1009.8S
$$

LMZ867-665-643>646-241500-
LAKE MICHIGAN

STATION/POSITION TIME  TEMP    WIND        PRES    WAVE
                       AIR SEA DIR/SP/G            HT/PER
                 (UTC) (F)     (DEG/KT/KT) (MB)    (FT/S)
CHAMBERS ISLAND  1340   47     360/ 15/ 18 1006.4S
N MID LAKE BUOY  1250   42 39   50/ 10/ 12 1007.2F   1
NORTHPORT PIER   1340   46     340/  6/  7 1007.1R
KEWAUNEE LAKESHO 1330   46      20/ 12/ 15 1005.4R
SHEBOYGAN LAKESH 1300   45      10/ 15/ 16 1005.0F
PORT WASHINGTON  1340   48      40/  6/  8 1005.8R
ATWATER BUOY     1209   45      10/ 12/ 16 1004.2F
MILWAUKEE LAKESH 1330   47      20/ 11/ 13   N/A
S MID LAKE BUOY  1250   48 45   10/ 16/ 16 1002.4F   2/ 3
KENOSHA   LAKESH 1300   49      10/ 17/ 18 1003.0
$$

TC  - TEMPERATURE IN CELSIUS
VSB - VISIBILITY IN STATUTE MILES
WCI - WIND CHILL INDEX
HX  - HEAT INDEX





USA.gov is the U.S. government's official web portal to all federal, state and local government web resources and services.